Location: Okie-Tex Star Party
(36.8978°N, 102.9520°W)
Time: 16:38:58
(UTC-05:00)

Oscar 16 - Visible Passes

Search period start: 23 August 2017 00:00
Search period end: 02 September 2017 00:00
Orbit: 775 x 790 km, 98.6° (Epoch: 22 August)

Date Brightness Start Highest point End Pass type
(mag) Time Alt. Az. Time Alt. Az. Time Alt. Az.
23 Aug 12.0 03:55:14 10° N 03:58:10 34° N 03:58:10 34° N visible
24 Aug 12.5 03:23:37 10° NNE 03:26:03 27° NNE 03:26:03 27° NNE visible
24 Aug 12.6 05:04:30 10° NNW 05:06:36 15° NW 05:06:36 15° NW visible
25 Aug 13.1 02:52:30 10° NE 02:53:55 17° NE 02:53:55 17° NE visible
25 Aug 12.2 04:31:43 10° N 04:34:28 25° NW 04:34:28 25° NW visible
26 Aug 12.2 03:59:37 10° N 04:02:20 31° N 04:02:20 31° N visible
27 Aug 12.6 03:27:57 10° NNE 03:30:12 26° NNE 03:30:12 26° NNE visible
27 Aug 12.7 05:09:07 10° NNW 05:10:46 14° NW 05:10:46 14° NW visible
28 Aug 13.2 02:56:45 10° NE 02:58:03 16° NE 02:58:03 16° NE visible
28 Aug 12.4 04:36:11 10° N 04:38:38 22° NNW 04:38:38 22° NNW visible
29 Aug 12.3 04:04:01 10° N 04:06:30 28° N 04:06:30 28° N visible
30 Aug 12.7 03:32:18 10° NNE 03:34:21 24° NNE 03:34:21 24° NNE visible
30 Aug 12.8 05:13:48 10° NW 05:14:55 12° NW 05:14:55 12° NW visible
31 Aug 13.2 03:01:02 10° NNE 03:02:13 16° NE 03:02:13 16° NE visible
31 Aug 12.5 04:40:40 10° NNW 04:42:47 20° NNW 04:42:47 20° NNW visible
01 Sep 12.4 04:08:25 10° N 04:10:38 25° N 04:10:38 25° N visible
